• In Czech Republic
  • List of Countries
  • For 7 days
  • Water Temperature
  • Satellite Maps
  • Weather Map
  • Weather Widgets
  • user-avatar
    Login

    Hourly Weather Moldova Noua

    Today, 21 January, Sunday

    Time Temperature Precipitation Wind Pressure Humidity
    00:00 -2°C° 0 mm 2 mps 744 mmHg 85%
    01:00 -2°C° 0 mm 2 mps 743 mmHg 82%
    02:00 -1°C° 0 mm 2 mps 742 mmHg 79%
    03:00 -1°C° 0 mm 2 mps 742 mmHg 77%
    04:00 -1°C° 0 mm 3 mps 741 mmHg 74%
    05:00 -1°C° 0 mm 3 mps 741 mmHg 75%
    06:00 0°C° 0 mm 3 mps 740 mmHg 75%
    07:00 -1°C° 0 mm 4 mps 740 mmHg 75%
    08:00 0°C° 0 mm 4 mps 740 mmHg 73%
    09:00 0°C° 0 mm 5 mps 739 mmHg 71%
    10:00 +1°C° 0 mm 5 mps 739 mmHg 69%
    11:00 +1°C° 0.2 mm 5 mps 739 mmHg 70%
    12:00 +1°C° 0.2 mm 5 mps 738 mmHg 71%
    13:00 +1°C° 0.2 mm 5 mps 738 mmHg 72%
    14:00 +1°C° 0.5 mm 4 mps 738 mmHg 76%
    15:00 0°C° 0.5 mm 4 mps 738 mmHg 80%
    16:00 +1°C° 0.5 mm 3 mps 738 mmHg 84%
    17:00 +1°C° 0.7 mm 3 mps 739 mmHg 87%
    18:00 +1°C° 0.7 mm 2 mps 739 mmHg 90%
    19:00 +2°C° 0.7 mm 1 mps 740 mmHg 93%
    20:00 +1°C° 0.5 mm 2 mps 740 mmHg 93%
    21:00 0°C° 0.5 mm 3 mps 741 mmHg 93%
    22:00 0°C° 0.5 mm 3 mps 742 mmHg 94%
    23:00 -1°C° 0.2 mm 4 mps 742 mmHg 93%

    Tomorrow, 22 January, Monday

    Time Temperature Precipitation Wind Pressure Humidity
    00:00 -2°C° 0.2 mm 4 mps 742 mmHg 92%
    01:00 -2°C° 0.2 mm 4 mps 743 mmHg 91%
    02:00 -2°C° 0.1 mm 5 mps 743 mmHg 91%
    03:00 -2°C° 0.1 mm 5 mps 743 mmHg 90%
    04:00 -2°C° 0.1 mm 5 mps 743 mmHg 90%
    05:00 -2°C° 0.1 mm 5 mps 743 mmHg 90%
    06:00 -2°C° 0.1 mm 5 mps 744 mmHg 90%
    07:00 -2°C° 0.1 mm 5 mps 744 mmHg 90%
    08:00 -2°C° 0 mm 5 mps 744 mmHg 88%
    09:00 -2°C° 0 mm 5 mps 744 mmHg 87%
    10:00 -2°C° 0 mm 5 mps 745 mmHg 85%
    11:00 -1°C° 0 mm 5 mps 745 mmHg 84%
    12:00 -1°C° 0 mm 5 mps 745 mmHg 83%
    13:00 -1°C° 0 mm 5 mps 745 mmHg 82%
    14:00 -1°C° 0 mm 4 mps 746 mmHg 83%
    15:00 -1°C° 0 mm 4 mps 746 mmHg 84%
    16:00 -2°C° 0 mm 4 mps 746 mmHg 85%
    17:00 -2°C° 0 mm 4 mps 747 mmHg 86%
    18:00 -1°C° 0 mm 3 mps 747 mmHg 87%
    19:00 -1°C° 0 mm 3 mps 748 mmHg 88%
    20:00 -2°C° 0 mm 3 mps 748 mmHg 89%
    21:00 -2°C° 0 mm 2 mps 749 mmHg 90%
    22:00 -3°C° 0 mm 2 mps 749 mmHg 91%
    23:00 -3°C° 0 mm 2 mps 749 mmHg 92%

    Day after tomorrow, 23 January, Tuesday

    Time Temperature Precipitation Wind Pressure Humidity
    00:00 -1°C° 0 mm 1 mps 750 mmHg 92%
    01:00 -1°C° 0 mm 1 mps 750 mmHg 93%
    02:00 -2°C° 0 mm 1 mps 750 mmHg 93%
    03:00 -2°C° 0 mm 1 mps 750 mmHg 92%
    04:00 -2°C° 0 mm 1 mps 751 mmHg 92%
    05:00 -2°C° 0 mm 1 mps 751 mmHg 92%
    06:00 -2°C° 0 mm 1 mps 752 mmHg 92%
    07:00 -2°C° 0 mm 1 mps 752 mmHg 91%
    08:00 -1°C° 0 mm 1 mps 753 mmHg 88%
    09:00 0°C° 0 mm 1 mps 753 mmHg 84%
    10:00 +1°C° 0 mm 1 mps 754 mmHg 80%
    11:00 +2°C° 0 mm 1 mps 754 mmHg 79%
    12:00 +2°C° 0 mm 1 mps 754 mmHg 77%
    13:00 +3°C° 0 mm 1 mps 754 mmHg 75%
    14:00 +2°C° 0 mm 1 mps 754 mmHg 77%
    15:00 +2°C° 0 mm 1 mps 755 mmHg 80%
    16:00 +2°C° 0 mm 1 mps 755 mmHg 82%
    17:00 +1°C° 0 mm 1 mps 756 mmHg 84%
    18:00 0°C° 0 mm 1 mps 756 mmHg 86%
    19:00 -1°C° 0 mm 1 mps 757 mmHg 87%
    20:00 -1°C° 0 mm 1 mps 757 mmHg 87%
    21:00 -1°C° 0 mm 1 mps 757 mmHg 87%
    22:00 -1°C° 0 mm 1 mps 758 mmHg 87%
    23:00 -1°C° 0 mm 1 mps 758 mmHg 87%

    24 January, Wednesday

    Time Temperature Precipitation Wind Pressure Humidity
    00:00 -1°C° 0 mm 1 mps 758 mmHg 86%
    01:00 -2°C° 0 mm 0 mps 758 mmHg 86%
    02:00 -2°C° 0 mm 0 mps 758 mmHg 86%
    03:00 -2°C° 0 mm 0 mps 759 mmHg 86%
    04:00 -2°C° 0 mm 0 mps 759 mmHg 86%
    05:00 -1°C° 0 mm 1 mps 759 mmHg 86%
    06:00 -1°C° 0 mm 1 mps 759 mmHg 86%
    07:00 -1°C° 0 mm 1 mps 760 mmHg 86%
    08:00 0°C° 0 mm 1 mps 760 mmHg 83%
    09:00 +1°C° 0 mm 1 mps 760 mmHg 79%
    10:00 +2°C° 0 mm 1 mps 761 mmHg 76%
    11:00 +2°C° 0 mm 2 mps 760 mmHg 74%
    12:00 +2°C° 0 mm 2 mps 760 mmHg 72%
    13:00 +3°C° 0 mm 2 mps 760 mmHg 70%
    14:00 +2°C° 0 mm 2 mps 760 mmHg 74%
    15:00 +2°C° 0 mm 2 mps 760 mmHg 77%
    16:00 +2°C° 0 mm 1 mps 760 mmHg 80%
    17:00 -1°C° 0 mm 2 mps 760 mmHg 83%
    18:00 -2°C° 0 mm 2 mps 760 mmHg 85%
    19:00 -2°C° 0 mm 2 mps 760 mmHg 88%
    20:00 -3°C° 0 mm 2 mps 759 mmHg 88%
    21:00 -3°C° 0 mm 2 mps 759 mmHg 88%
    22:00 -3°C° 0 mm 2 mps 759 mmHg 88%
    23:00 -3°C° 0 mm 2 mps 759 mmHg 88%

    25 January, Thursday

    Time Temperature Precipitation Wind Pressure Humidity
    00:00 -3°C° 0 mm 2 mps 759 mmHg 87%
    01:00 -3°C° 0 mm 2 mps 758 mmHg 87%
    02:00 -3°C° 0 mm 2 mps 758 mmHg 86%
    03:00 -3°C° 0 mm 2 mps 758 mmHg 86%
    04:00 -3°C° 0 mm 2 mps 757 mmHg 85%
    05:00 -3°C° 0 mm 2 mps 757 mmHg 85%
    06:00 -3°C° 0 mm 2 mps 757 mmHg 84%
    07:00 -3°C° 0 mm 2 mps 757 mmHg 83%
    08:00 -2°C° 0 mm 2 mps 757 mmHg 78%
    09:00 -1°C° 0 mm 2 mps 756 mmHg 73%
    10:00 +2°C° 0 mm 2 mps 756 mmHg 68%
    11:00 +3°C° 0 mm 2 mps 756 mmHg 65%
    12:00 +3°C° 0 mm 2 mps 755 mmHg 63%
    13:00 +4°C° 0 mm 2 mps 755 mmHg 60%
    14:00 +3°C° 0 mm 2 mps 754 mmHg 64%
    15:00 +3°C° 0 mm 2 mps 754 mmHg 68%
    16:00 +2°C° 0 mm 2 mps 754 mmHg 72%
    17:00 +1°C° 0 mm 2 mps 754 mmHg 73%
    18:00 -1°C° 0 mm 2 mps 754 mmHg 73%
    19:00 -2°C° 0 mm 2 mps 754 mmHg 74%
    20:00 -2°C° 0 mm 2 mps 754 mmHg 73%
    21:00 -2°C° 0 mm 2 mps 754 mmHg 71%
    22:00 -2°C° 0 mm 2 mps 754 mmHg 70%
    23:00 -2°C° 0 mm 2 mps 753 mmHg 70%

    26 January, Friday

    Time Temperature Precipitation Wind Pressure Humidity
    00:00 -2°C° 0 mm 2 mps 753 mmHg 70%
    01:00 -4°C° 0 mm 3 mps 753 mmHg 70%
    02:00 -4°C° 0 mm 3 mps 753 mmHg 71%
    03:00 -4°C° 0 mm 3 mps 753 mmHg 72%
    04:00 -4°C° 0 mm 3 mps 752 mmHg 73%
    05:00 -4°C° 0 mm 3 mps 752 mmHg 74%
    06:00 -4°C° 0 mm 3 mps 753 mmHg 75%
    07:00 -4°C° 0 mm 3 mps 753 mmHg 76%
    08:00 -2°C° 0 mm 3 mps 753 mmHg 73%
    09:00 -2°C° 0 mm 4 mps 753 mmHg 69%
    10:00 -1°C° 0 mm 4 mps 753 mmHg 66%
    11:00 0°C° 0 mm 4 mps 753 mmHg 63%
    12:00 0°C° 0 mm 4 mps 752 mmHg 61%
    13:00 +1°C° 0 mm 4 mps 752 mmHg 58%
    14:00 0°C° 0 mm 4 mps 752 mmHg 60%
    15:00 +1°C° 0 mm 3 mps 752 mmHg 62%
    16:00 0°C° 0 mm 3 mps 752 mmHg 64%
    17:00 -1°C° 0 mm 3 mps 752 mmHg 64%
    18:00 -2°C° 0 mm 3 mps 753 mmHg 65%
    19:00 -2°C° 0 mm 3 mps 753 mmHg 65%
    20:00 -2°C° 0 mm 3 mps 753 mmHg 66%
    21:00 -2°C° 0 mm 3 mps 753 mmHg 66%
    22:00 -2°C° 0 mm 3 mps 753 mmHg 66%
    23:00 -2°C° 0 mm 3 mps 753 mmHg 66%
    Show more